| time (UTC) | temp F | wind direction | speed MPH | gust MPH | rain 1hr in | rain 24hr in | rain mn in | humidity % | barometer mb |
| 20260503181519 | 83 | 235 | 7.0 | 20.0 | 0.00 | 0.00 | 0.00 | 18 | 1011.5 |
| 20260503181008 | 83 | 225 | 6.0 | 20.0 | 0.00 | 0.00 | 0.00 | 21 | 1011.6 |
| 20260503180509 | 83 | 178 | 8.0 | 19.0 | 0.00 | 0.00 | 0.00 | 21 | 1011.7 |
| 20260503180013 | 83 | 213 | 9.0 | 19.0 | 0.00 | 0.00 | 0.00 | 19 | 1011.8 |
| 20260503175503 | 83 | 207 | 8.0 | 18.0 | 0.00 | 0.00 | 0.00 | 20 | 1011.9 |
| 20260503175003 | 83 | 198 | 8.0 | 16.0 | 0.00 | 0.00 | 0.00 | 21 | 1012.0 |
| 20260503174510 | 83 | 252 | 8.0 | 20.0 | 0.00 | 0.00 | 0.00 | 21 | 1012.2 |
| 20260503174006 | 83 | 271 | 6.0 | 20.0 | 0.00 | 0.00 | 0.00 | 22 | 1012.2 |
| 20260503173506 | 84 | 219 | 6.0 | 16.0 | 0.00 | 0.00 | 0.00 | 20 | 1012.3 |
| 20260503173022 | 84 | 213 | 8.0 | 14.0 | 0.00 | 0.00 | 0.00 | 18 | 1012.4 |
| 20260503172508 | 84 | 194 | 6.0 | 16.0 | 0.00 | 0.00 | 0.00 | 18 | 1012.4 |
| 20260503172010 | 84 | 271 | 6.0 | 17.0 | 0.00 | 0.00 | 0.00 | 20 | 1012.4 |
| 20260503171524 | 84 | 252 | 7.0 | 18.0 | 0.00 | 0.00 | 0.00 | 18 | 1012.5 |
| 20260503171008 | 83 | 223 | 7.0 | 15.0 | 0.00 | 0.00 | 0.00 | 17 | 1012.6 |
| 20260503170502 | 83 | 266 | 6.0 | 19.0 | 0.00 | 0.00 | 0.00 | 20 | 1012.6 |
| 20260503151003 | 73 | 255 | 8.0 | 17.0 | 0.00 | 0.00 | 0.00 | 33 | 1013.6 |
| 20260503150503 | 72 | 202 | 3.0 | 17.0 | 0.00 | 0.00 | 0.00 | 35 | 1013.6 |
| 20260503131005 | 54 | 231 | 4.0 | 10.0 | 0.00 | 0.00 | 0.00 | 64 | 1014.5 |
| 20260503130507 | 53 | 260 | 3.0 | 11.0 | 0.00 | 0.00 | 0.00 | 65 | 1014.5 |
| 20260503110503 | 51 | 222 | 4.0 | 9.0 | 0.00 | 0.00 | 0.00 | 66 | 1014.2 |
| 20260503090504 | 52 | 190 | 6.0 | 11.0 | 0.00 | 0.00 | 0.00 | 64 | 1015.0 |
| 20260503081522 | 51 | 211 | 3.0 | 10.0 | 0.00 | 0.00 | 0.00 | 61 | 1015.3 |
| 20260503081003 | 52 | 204 | 3.0 | 10.0 | 0.00 | 0.00 | 0.00 | 61 | 1015.3 |
| 20260503072509 | 52 | 196 | 3.0 | 6.0 | 0.00 | 0.00 | 0.00 | 57 | 1015.8 |
| 20260503072007 | 53 | 192 | 3.0 | 6.0 | 0.00 | 0.00 | 0.00 | 57 | 1015.8 |
| 20260503071532 | 53 | 218 | 3.0 | 5.0 | 0.00 | 0.00 | 0.00 | 56 | 1015.8 |
| 20260503071003 | 53 | 210 | 2.0 | 6.0 | 0.00 | 0.00 | 0.00 | 55 | 1015.9 |
| 20260503070503 | 54 | 213 | 2.0 | 6.0 | 0.00 | 0.00 | 0.00 | 55 | 1016.0 |
| 20260503055006 | 56 | 201 | 5.0 | 10.0 | 0.00 | 0.00 | 0.00 | 48 | 1016.3 |
| 20260503054524 | 56 | 190 | 5.0 | 9.0 | 0.00 | 0.00 | 0.00 | 47 | 1016.4 |
| 20260503054006 | 56 | 203 | 4.0 | 9.0 | 0.00 | 0.00 | 0.00 | 47 | 1016.4 |
| 20260503053508 | 56 | 188 | 4.0 | 8.0 | 0.00 | 0.00 | 0.00 | 47 | 1016.5 |
| 20260503053025 | 57 | 191 | 4.0 | 9.0 | 0.00 | 0.00 | 0.00 | 46 | 1016.4 |
| 20260503052507 | 57 | 170 | 5.0 | 9.0 | 0.00 | 0.00 | 0.00 | 45 | 1016.5 |
| 20260503052010 | 57 | 167 | 5.0 | 9.0 | 0.00 | 0.00 | 0.00 | 45 | 1016.5 |
| 20260503051506 | 57 | 190 | 4.0 | 11.0 | 0.00 | 0.00 | 0.00 | 44 | 1016.6 |
| 20260503051003 | 57 | 193 | 6.0 | 11.0 | 0.00 | 0.00 | 0.00 | 44 | 1016.6 |
| 20260503050510 | 57 | 182 | 5.0 | 11.0 | 0.00 | 0.00 | 0.00 | 43 | 1016.6 |
| 20260503050020 | 57 | 185 | 5.0 | 11.0 | 0.00 | 0.00 | 0.00 | 43 | 1016.6 |
| 20260503045507 | 57 | 175 | 5.0 | 12.0 | 0.00 | 0.00 | 0.00 | 43 | 1016.6 |
| 20260503045009 | 57 | 157 | 4.0 | 12.0 | 0.00 | 0.00 | 0.00 | 43 | 1016.6 |
| 20260503044531 | 57 | 210 | 5.0 | 11.0 | 0.00 | 0.00 | 0.00 | 42 | 1016.6 |
| 20260503044013 | 57 | 178 | 5.0 | 9.0 | 0.00 | 0.00 | 0.00 | 42 | 1016.6 |
| 20260503043507 | 57 | 158 | 5.0 | 11.0 | 0.00 | 0.00 | 0.00 | 42 | 1016.7 |
| 20260503043024 | 57 | 197 | 5.0 | 11.0 | 0.00 | 0.00 | 0.00 | 42 | 1016.7 |
| 20260503042510 | 57 | 175 | 6.0 | 11.0 | 0.00 | 0.00 | 0.00 | 42 | 1016.7 |
| 20260503042003 | 57 | 201 | 5.0 | 9.0 | 0.00 | 0.00 | 0.00 | 42 | 1016.8 |
| 20260503041512 | 57 | 169 | 4.0 | 8.0 | 0.00 | 0.00 | 0.00 | 42 | 1016.8 |
| 20260503041004 | 57 | 176 | 4.0 | 8.0 | 0.00 | 0.00 | 0.00 | 42 | 1016.9 |
| 20260503040505 | 57 | 192 | 4.0 | 8.0 | 0.00 | 0.00 | 0.00 | 42 | 1017.0 |
| 20260503040023 | 57 | 179 | 3.0 | 8.0 | 0.00 | 0.00 | 0.00 | 41 | 1017.0 |
| 20260503035509 | 58 | 187 | 4.0 | 7.0 | 0.00 | 0.00 | 0.00 | 41 | 1017.1 |
| 20260503035008 | 58 | 169 | 3.0 | 8.0 | 0.00 | 0.00 | 0.00 | 40 | 1017.3 |
| 20260503034524 | 58 | 156 | 4.0 | 8.0 | 0.00 | 0.00 | 0.00 | 40 | 1017.3 |
| 20260503034008 | 58 | 163 | 3.0 | 6.0 | 0.00 | 0.00 | 0.00 | 40 | 1017.3 |
| 20260503033506 | 59 | 159 | 3.0 | 5.0 | 0.00 | 0.00 | 0.00 | 40 | 1017.3 |
| 20260503033024 | 59 | 140 | 3.0 | 4.0 | 0.00 | 0.00 | 0.00 | 39 | 1017.4 |
| 20260503032511 | 60 | 138 | 2.0 | 4.0 | 0.00 | 0.00 | 0.00 | 38 | 1017.4 |
| 20260503032005 | 60 | 138 | 2.0 | 7.0 | 0.00 | 0.00 | 0.00 | 37 | 1017.4 |
| 20260503031512 | 60 | 132 | 3.0 | 7.0 | 0.00 | 0.00 | 0.00 | 36 | 1017.4 |
| 20260503031008 | 60 | 127 | 3.0 | 5.0 | 0.00 | 0.00 | 0.00 | 35 | 1017.4 |
| 20260503030506 | 60 | 128 | 2.0 | 6.0 | 0.00 | 0.00 | 0.00 | 36 | 1017.4 |
| 20260503030016 | 61 | 121 | 3.0 | 6.0 | 0.00 | 0.00 | 0.00 | 35 | 1017.4 |
| 20260503025507 | 61 | 120 | 2.0 | 4.0 | 0.00 | 0.00 | 0.00 | 35 | 1017.3 |
| 20260503025007 | 61 | 137 | 1.0 | 3.0 | 0.00 | 0.00 | 0.00 | 33 | 1017.3 |
| 20260503024523 | 61 | 142 | 2.0 | 3.0 | 0.00 | 0.00 | 0.00 | 33 | 1017.3 |
| 20260503024008 | 62 | 99 | 0.0 | 2.0 | 0.00 | 0.00 | 0.00 | 33 | 1017.1 |
| 20260503023509 | 62 | 93 | 0.0 | 2.0 | 0.00 | 0.00 | 0.00 | 32 | 1017.2 |
| 20260503023027 | 62 | 105 | 1.0 | 2.0 | 0.00 | 0.00 | 0.00 | 32 | 1017.1 |
| 20260503022503 | 62 | 111 | 1.0 | 3.0 | 0.00 | 0.00 | 0.00 | 32 | 1017.1 |
| 20260503022010 | 63 | 134 | 1.0 | 3.0 | 0.00 | 0.00 | 0.00 | 31 | 1017.1 |
| 20260503021514 | 63 | 98 | 0.0 | 3.0 | 0.00 | 0.00 | 0.00 | 31 | 1017.0 |
| 20260503021011 | 63 | 147 | 1.0 | 3.0 | 0.00 | 0.00 | 0.00 | 32 | 1017.0 |
| 20260503020508 | 63 | 71 | 1.0 | 3.0 | 0.00 | 0.00 | 0.00 | 31 | 1016.9 |
| 20260503015506 | 64 | 74 | 0.0 | 2.0 | 0.00 | 0.00 | 0.00 | 31 | 1016.9 |
| 20260503015010 | 64 | 82 | 0.0 | 2.0 | 0.00 | 0.00 | 0.00 | 30 | 1016.9 |
| 20260503014524 | 65 | 109 | 0.0 | 4.0 | 0.00 | 0.00 | 0.00 | 30 | 1016.8 |
| 20260503014008 | 65 | 98 | 0.0 | 4.0 | 0.00 | 0.00 | 0.00 | 30 | 1016.8 |
| 20260503013510 | 66 | 71 | 1.0 | 4.0 | 0.00 | 0.00 | 0.00 | 30 | 1016.7 |
| 20260503013036 | 67 | 80 | 1.0 | 3.0 | 0.00 | 0.00 | 0.00 | 30 | 1016.7 |
| 20260503012506 | 67 | 117 | 0.0 | 3.0 | 0.00 | 0.00 | 0.00 | 29 | 1016.7 |
| 20260503012005 | 67 | 132 | 1.0 | 4.0 | 0.00 | 0.00 | 0.00 | 29 | 1016.8 |
| 20260503011515 | 67 | 137 | 2.0 | 4.0 | 0.00 | 0.00 | 0.00 | 28 | 1016.8 |
| 20260503011007 | 68 | 155 | 2.0 | 3.0 | 0.00 | 0.00 | 0.00 | 28 | 1016.8 |
| 20260503010510 | 68 | 132 | 2.0 | 3.0 | 0.00 | 0.00 | 0.00 | 27 | 1016.8 |
| 20260503010023 | 68 | 160 | 1.0 | 3.0 | 0.00 | 0.00 | 0.00 | 27 | 1016.9 |
| 20260503005510 | 68 | 168 | 2.0 | 3.0 | 0.00 | 0.00 | 0.00 | 26 | 1016.9 |
| 20260503005009 | 68 | 172 | 1.0 | 3.0 | 0.00 | 0.00 | 0.00 | 26 | 1016.9 |
| 20260503004551 | 69 | 171 | 1.0 | 3.0 | 0.00 | 0.00 | 0.00 | 26 | 1016.8 |
| 20260503004012 | 69 | 188 | 1.0 | 6.0 | 0.00 | 0.00 | 0.00 | 26 | 1016.9 |
| 20260503003508 | 69 | 215 | 2.0 | 5.0 | 0.00 | 0.00 | 0.00 | 26 | 1016.9 |
| 20260503003010 | 69 | 160 | 2.0 | 6.0 | 0.00 | 0.00 | 0.00 | 26 | 1017.0 |
| 20260503002506 | 69 | 189 | 3.0 | 6.0 | 0.00 | 0.00 | 0.00 | 26 | 1017.0 |
| 20260503002007 | 69 | 192 | 2.0 | 5.0 | 0.00 | 0.00 | 0.00 | 25 | 1017.0 |
| 20260503001519 | 69 | 210 | 3.0 | 5.0 | 0.00 | 0.00 | 0.00 | 25 | 1017.0 |
| 20260503001009 | 69 | 315 | 2.0 | 5.0 | 0.00 | 0.00 | 0.00 | 25 | 1017.1 |
| 20260503000509 | 70 | 205 | 1.0 | 5.0 | 0.00 | 0.00 | 0.00 | 26 | 1017.2 |
| 20260503000026 | 70 | 182 | 3.0 | 5.0 | 0.00 | 0.00 | 0.00 | 26 | 1017.2 |
| 20260502235509 | 70 | 221 | 1.0 | 5.0 | 0.00 | 0.00 | 0.00 | 25 | 1017.3 |
| 20260502235013 | 70 | 188 | 2.0 | 7.0 | 0.00 | 0.00 | 0.00 | 25 | 1017.4 |
| 20260502234527 | 70 | 192 | 4.0 | 7.0 | 0.00 | 0.00 | 0.00 | 1017.3 | |
| 20260502234008 | 70 | 226 | 2.0 | 7.0 | 0.00 | 0.00 | 0.00 | 25 | 1017.4 |
| 20260502233507 | 71 | 269 | 2.0 | 7.0 | 0.00 | 0.00 | 0.00 | 25 | 1017.3 |
| 20260502233019 | 71 | 267 | 2.0 | 8.0 | 0.00 | 0.00 | 0.00 | 24 | 1017.4 |
| 20260502232507 | 71 | 294 | 2.0 | 7.0 | 0.00 | 0.00 | 0.00 | 24 | 1017.4 |
| 20260502232007 | 72 | 350 | 3.0 | 18.0 | 0.00 | 0.00 | 0.00 | 23 | 1017.5 |
| 20260502231521 | 72 | 336 | 5.0 | 18.0 | 0.00 | 0.00 | 0.00 | 23 | 1017.5 |
| 20260502231008 | 73 | 246 | 4.0 | 8.0 | 0.00 | 0.00 | 0.00 | 23 | 1017.6 |
| 20260502230510 | 73 | 275 | 1.0 | 8.0 | 0.00 | 0.00 | 0.00 | 23 | 1017.5 |
| 20260502230026 | 73 | 352 | 2.0 | 8.0 | 0.00 | 0.00 | 0.00 | 23 | 1017.6 |
| 20260502225507 | 73 | 328 | 3.0 | 9.0 | 0.00 | 0.00 | 0.00 | 22 | 1017.6 |
| 20260502225003 | 73 | 221 | 1.0 | 11.0 | 0.00 | 0.00 | 0.00 | 22 | 1017.6 |
| 20260502224512 | 73 | 275 | 7.0 | 11.0 | 0.00 | 0.00 | 0.00 | 22 | 1017.6 |
| 20260502224007 | 73 | 323 | 7.0 | 11.0 | 0.00 | 0.00 | 0.00 | 23 | 1017.6 |
| 20260502223507 | 73 | 304 | 5.0 | 13.0 | 0.00 | 0.00 | 0.00 | 23 | 1017.6 |
| 20260502223020 | 73 | 324 | 9.0 | 13.0 | 0.00 | 0.00 | 0.00 | 23 | 1017.7 |
| 20260502222508 | 72 | 302 | 4.0 | 8.0 | 0.00 | 0.00 | 0.00 | 23 | 1017.7 |
| 20260502222005 | 73 | 38 | 2.0 | 5.0 | 0.00 | 0.00 | 0.00 | 22 | 1017.8 |
| 20260502221525 | 73 | 269 | 0.0 | 12.0 | 0.00 | 0.00 | 0.00 | 22 | 1017.9 |
| 20260502221008 | 73 | 281 | 4.0 | 12.0 | 0.00 | 0.00 | 0.00 | 23 | 1018.0 |
| 20260502220510 | 73 | 299 | 8.0 | 12.0 | 0.00 | 0.00 | 0.00 | 23 | 1018.0 |
| 20260502220009 | 72 | 337 | 2.0 | 6.0 | 0.00 | 0.00 | 0.00 | 22 | 1018.1 |
| 20260502215505 | 72 | 313 | 3.0 | 15.0 | 0.00 | 0.00 | 0.00 | 23 | 1018.2 |
| 20260502215005 | 71 | 329 | 3.0 | 15.0 | 0.00 | 0.00 | 0.00 | 22 | 1018.2 |
| 20260502214517 | 71 | 352 | 9.0 | 14.0 | 0.00 | 0.00 | 0.00 | 22 | 1018.2 |
| 20260502214007 | 72 | 29 | 5.0 | 14.0 | 0.00 | 0.00 | 0.00 | 22 | 1018.3 |
| 20260502213509 | 72 | 360 | 8.0 | 14.0 | 0.00 | 0.00 | 0.00 | 23 | 1018.4 |
| 20260502213022 | 72 | 287 | 5.0 | 14.0 | 0.00 | 0.00 | 0.00 | 23 | 1018.5 |
| 20260502212511 | 72 | 304 | 9.0 | 15.0 | 0.00 | 0.00 | 0.00 | 23 | 1018.6 |
| 20260502212009 | 72 | 252 | 4.0 | 15.0 | 0.00 | 0.00 | 0.00 | 24 | 1018.6 |
| 20260502211529 | 72 | 303 | 5.0 | 11.0 | 0.00 | 0.00 | 0.00 | 22 | 1018.6 |
| 20260502211010 | 71 | 253 | 2.0 | 14.0 | 0.00 | 0.00 | 0.00 | 23 | 1018.7 |
| 20260502210507 | 71 | 232 | 5.0 | 14.0 | 0.00 | 0.00 | 0.00 | 21 | 1018.9 |
| 20260502210025 | 71 | 312 | 9.0 | 14.0 | 0.00 | 0.00 | 0.00 | 22 | 1018.9 |
| 20260502205509 | 71 | 38 | 5.0 | 11.0 | 0.00 | 0.00 | 0.00 | 20 | 1019.0 |
| 20260502205006 | 71 | 306 | 7.0 | 11.0 | 0.00 | 0.00 | 0.00 | 21 | 1019.2 |
| 20260502204518 | 71 | 336 | 6.0 | 13.0 | 0.00 | 0.00 | 0.00 | 21 | 1019.3 |
| 20260502204008 | 71 | 40 | 3.0 | 13.0 | 0.00 | 0.00 | 0.00 | 20 | 1019.4 |
| 20260502203506 | 71 | 306 | 7.0 | 13.0 | 0.00 | 0.00 | 0.00 | 20 | 1019.5 |
| 20260502203022 | 71 | 294 | 5.0 | 13.0 | 0.00 | 0.00 | 0.00 | 21 | 1019.6 |
| 20260502202510 | 71 | 18 | 6.0 | 13.0 | 0.00 | 0.00 | 0.00 | 20 | 1019.7 |
| 20260502202009 | 70 | 243 | 3.0 | 9.0 | 0.00 | 0.00 | 0.00 | 24 | 1019.7 |
| 20260502201525 | 70 | 344 | 4.0 | 10.0 | 0.00 | 0.00 | 0.00 | 23 | 1019.8 |
| 20260502201010 | 70 | 286 | 6.0 | 11.0 | 0.00 | 0.00 | 0.00 | 22 | 1019.9 |
| 20260502200506 | 70 | 326 | 7.0 | 14.0 | 0.00 | 0.00 | 0.00 | 21 | 1019.9 |
| 20260502200014 | 70 | 309 | 7.0 | 14.0 | 0.00 | 0.00 | 0.00 | 24 | 1019.9 |
| 20260502195509 | 69 | 340 | 3.0 | 13.0 | 0.00 | 0.00 | 0.00 | 23 | 1019.9 |
| 20260502195006 | 69 | 312 | 3.0 | 13.0 | 0.00 | 0.00 | 0.00 | 22 | 1020.0 |
| 20260502194521 | 68 | 302 | 7.0 | 12.0 | 0.00 | 0.00 | 0.00 | 25 | 1020.1 |
| 20260502194010 | 68 | 255 | 1.0 | 5.0 | 0.00 | 0.00 | 0.00 | 25 | 1020.2 |
| 20260502193512 | 69 | 148 | 3.0 | 5.0 | 0.00 | 0.00 | 0.00 | 24 | 1020.2 |
| 20260502193006 | 69 | 91 | 2.0 | 8.0 | 0.00 | 0.00 | 0.00 | 23 | 1020.3 |
| 20260502192505 | 69 | 76 | 4.0 | 8.0 | 0.00 | 0.00 | 0.00 | 26 | 1020.3 |
| 20260502192002 | 68 | 311 | 1.0 | 9.0 | 0.00 | 0.00 | 0.00 | 26 | 1020.5 |
| 20260502191511 | 68 | 319 | 1.0 | 9.0 | 0.00 | 0.00 | 0.00 | 29 | 1020.5 |
| 20260502191007 | 68 | 248 | 5.0 | 9.0 | 0.00 | 0.00 | 0.00 | 30 | 1020.6 |
| 20260502190507 | 68 | 285 | 1.0 | 9.0 | 0.00 | 0.00 | 0.00 | 31 | 1020.7 |
| 20260502190022 | 67 | 209 | 3.0 | 7.0 | 0.00 | 0.00 | 0.00 | 31 | 1020.7 |
| 20260502185508 | 66 | 247 | 2.0 | 7.0 | 0.00 | 0.00 | 0.00 | 29 | 1020.8 |
| 20260502185006 | 66 | 213 | 4.0 | 7.0 | 0.00 | 0.00 | 0.00 | 29 | 1020.8 |
| 20260502184525 | 66 | 218 | 3.0 | 7.0 | 0.00 | 0.00 | 0.00 | 31 | 1020.9 |
| 20260502184014 | 66 | 163 | 4.0 | 7.0 | 0.00 | 0.00 | 0.00 | 30 | 1021.0 |
| 20260502183511 | 66 | 171 | 3.0 | 7.0 | 0.00 | 0.00 | 0.00 | 30 | 1021.1 |
| 20260502183004 | 66 | 202 | 2.0 | 7.0 | 0.00 | 0.00 | 0.00 | 30 | 1021.1 |
| 20260502182503 | 66 | 142 | 4.0 | 9.0 | 0.00 | 0.00 | 0.00 | 29 | 1021.2 |
| 20260502182011 | 66 | 189 | 5.0 | 9.0 | 0.00 | 0.00 | 0.00 | 30 | 1021.3 |